Regional Weather Roundup
Issued by NWS Boston, MA

Home | Current Version | Previous Version | Text Only | Print | Product List | Glossary On
Versions: 1 2 3 4 5 6 7 8 9 10 11 12 13 14 15 16 17 18 19 20 21 22 23 24 25 26 27 28 29 30 31 32 33 34 35 36 37 38 39 40 41 42 43 44 45 46 47 48 49 50
012
ASUS41 KBOX 221710
RWRBOX

REGIONAL WEATHER ROUNDUP
NATIONAL WEATHER SERVICE TAUNTON MA
1200 PM EST SUN JAN 22 2017

NOTE:  "FAIR" INDICATES FEW OR NO CLOUDS BELOW 12,000 FEET WITH NO
SIGNIFICANT WEATHER AND/OR OBSTRUCTIONS TO VISIBILITY.

MAZALL-221800-
EASTERN MASSACHUSETTS

CITY           SKY/WX    TMP DP  RH WIND       PRES   REMARKS
BOSTON         CLOUDY    47  42  83 NE14      29.81F
BEVERLY        CLOUDY    45  42  89 NE10      29.80F
LAWRENCE       CLOUDY    41  40  96 N13       29.84S
BEDFORD        CLOUDY    45  38  76 NE12      29.80F
BLUE HILL        N/A     43  40  89 NE13G18   29.78R
NORWOOD        CLOUDY    48  42  80 NE8       29.81R
MARSHFIELD     CLOUDY    46  43  87 VRB5G13   29.79F
PLYMOUTH       PTSUNNY   47  41  80 NE10      29.79S
TAUNTON        CLOUDY    50  40  68 CALM      29.78F
NEW BEDFORD    CLOUDY    51  42  71 NE7       29.77F
$$

MAZALL-221800-
CAPE COD AND THE ISLANDS

CITY           SKY/WX    TMP DP  RH WIND       PRES   REMARKS
FALMOUTH       MOSUNNY   48  41  76 MISG      29.79S
HYANNIS        CLOUDY    46  40  79 N8        29.76F
CHATHAM        PTSUNNY   49  42  77 NE8       29.78F
PROVINCETOWN   PTSUNNY   46  43  87 NE8       29.80S
NANTUCKET      PTSUNNY   46  42  86 SE6       29.76F
MARTHAS VNYRD  CLOUDY    51  43  74 NE12      29.76F
$$

MAZALL-221800-
CENTRAL AND WESTERN MASSACHUSETTS

CITY           SKY/WX    TMP DP  RH WIND       PRES   REMARKS
WORCESTER      CLOUDY    42  37  82 NE6       29.78S
FITCHBURG      LGT RAIN  44  40  85 NE5       29.82S
ORANGE         LGT RAIN  39  39 100 CALM      29.80R FOG
SPRINGFIELD    CLOUDY    44  44  99 N7        29.78S
WESTFIELD      CLOUDY    43  40  89 N8        29.79F
NORTH ADAMS    CLOUDY    46  40  79 E8        29.77S
PITTSFIELD     CLOUDY    45  43  93 CALM      29.75S FOG
$$

RIZALL-221800-
RHODE ISLAND

CITY           SKY/WX    TMP DP  RH WIND       PRES   REMARKS
PROVIDENCE     CLOUDY    49  41  74 NE9       29.78F
NEWPORT        CLOUDY    50  44  80 NE7       29.77F
SMITHFIELD     CLOUDY    48  41  76 NE10      29.78F
WESTERLY       SUNNY     54  42  64 E10       29.76F
$$

CTZALL-221800-
CONNECTICUT

CITY           SKY/WX    TMP DP  RH WIND       PRES   REMARKS
BRADLEY INTL   CLOUDY    46  42  86 N9        29.78F
HARTFORD       CLOUDY    49  43  80 N12       29.77F HAZE
BRIDGEPORT     CLOUDY    45  42  89 NE8       29.75F FOG
DANBURY        CLOUDY    54  45  71 E5        29.74F
GROTON         SUNNY     50  44  80 E5        29.74F
NEW HAVEN      PTSUNNY   44  42  93 S6        29.75F FOG
CHESTER        FAIR      54  45  71 VRB6      29.74F
MERIDEN        SUNNY     54  43  66 N5        29.75F
WILLIMANTIC    CLOUDY    53  42  66 E6        29.77F
OXFORD         PTSUNNY   52  43  71 NE6       29.76S
$$

MEZ002-015-021-024-NHZ003-005-008-011-012-014-VTZ005-008-221800-
NORTHERN NEW ENGLAND

CITY           SKY/WX    TMP DP  RH WIND       PRES   REMARKS
PORTLAND ME    CLOUDY    36  31  82 NE10      29.88S WCI  28
BANGOR ME      CLOUDY    36  29  75 NE12      29.89F WCI  28
CONCORD NH     CLOUDY    38  34  85 E7        29.85R
MANCHESTER NH  NOT AVBL
NASHUA NH      NOT AVBL
PORTSMOUTH NH  CLOUDY    38  35  87 NE13      29.84R WCI  30
JAFFREY NH     NOT AVBL
KEENE NH       NOT AVBL
BURLINGTON VT  CLOUDY    34  32  92 NW8       29.84R WCI  27
MT. WASHINGTON FOG       28  28 100 W31         N/A  VSB 3/16WCI  12
$$

NYZ052-076-221800-
EASTERN NEW YORK

CITY           SKY/WX    TMP DP  RH WIND       PRES   REMARKS
ALBANY         CLOUDY    42  39  89 N5        29.79R FOG
NEW YORK CITY  FOG       43  41  93 NE12      29.73F VSB 1/2
$$

ANZALL-221800-
MARINE OBSERVATIONS

STATION/POSITION TIME  TEMP    WIND        PRES    VSBY  WAVE
                       AIR SEA DIR/SP/G                  HT/PER
                 (UTC) (F)     (DEG/KT/KT) (MB)    (MI)  (FT/S)
BOSTON BUOY      1550   45 45   10/  8/ 10 1008.6          4/11
BUZZARDS BAY     1600   40      50/  8/  9 1008.7F
NANTUCKET SOUND  1550   42 43   80/  2/  4 1008.4          1/12
MASS BAY-STELLWA 1604   45 44   40/ 12/ 14 1009.1F  1 7/8
ISLE OF SHOALS   1600   40      40/ 20/ 24 1009.6R
S OF BLOCK IS    1655      46                N/A           4/13
$$

......................KEY.........................
  SKY/WX - SKY CONDITION/PRESENT WEATHER
  TMP    - TEMPERATURE IN FAHRENHEIT
  DWPT   - DEWPOINT IN FAHRENHEIT
  RH     - RELATIVE HUMIDITY IN PERCENT
  WIND   - DIRECTION AND SPEED IN MPH
  PRES   - MEAN SEA LEVEL PRESSURE IN INCHES OF HG
  WCI    - WIND CHILL INDEX
  VSB    - VISIBILITY IN MILES
  HX     - HEAT INDEX
  TC     - TEMPERATURE IN CELSIUS
  VRB    - VARIABLE WIND DIRECTION
  N/A    - NOT AVAILABLE




USA.gov is the U.S. government's official web portal to all federal, state and local government web resources and services.